THORAD DELTA 1 DEB, 8170

Orbit data source: Space-Track

THORAD DELTA 1 DEB, 8170 is space debris in SSO originally from a launch on Fri, 15 Nov 1974 UTC launched from the Air Force Western Test Range (AFWTR). Debris objects in space refer to the collection of defunct objects orbiting the Earth. Examples of debris include non-operational satellites, rocket bodies, and fragments generated from explosions, collisions, or faulty payload assembly.

Loading next visibility...
Identifier
8170, 1974-089AL
Orbit
SSO
Country
Flag of USUS
Related business
Manufacturer
Unknown
Mission
Spacecraft
Bus & Motor
Unknown
Mass
Unknown
Launch date (UTC)
1974-11-15 (51 years ago)
Launch vehicle
Unknown
Launch site
Air Force Western Test Range (AFWTR)
Object type
Payload
Rocket body
Debris
Shape & HBR
Unknown shape, 0.1 m
Radar Cross Section
Small (<0.1 m²)

Expand to show TLE details & history
Last TLE update: 14 hours ago

TLE from 14 hours ago
0 THORAD DELTA 1 DEB
1  8170U 74089AL  25353.44312221  .00013456  00000-0  67328-2 0  9998
2  8170 101.5732 329.8888 0048605 143.2242   7.9326 14.16244460464489
Epoch: 2025-12-19T10:38Z
TLE epoch observation values (Epoch: 2025-12-19T10:38:05.758Z)
Latitude
28.17457°
Longitude
-91.65573°
Altitude
806.694 km
Speed
7.471 km/s
True Right ascension
10h 24m 36s
True Declination
28° 01' 58"
Sunlit
Object was in full shadow at epoch
Visualization orbit readout
Latitude
Unknown
Longitude
Unknown
Altitude
Unknown
Speed
Unknown
Apparent Right ascension
Unknown
Apparent Declination
Unknown
Sunlit
N/A
Visualization observer readout
Local Sidereal Time
23:49:50
Azimuth
Unknown
Elevation
Unknown
Doppler factor
Unknown
Orbital elements
Apogee altitude
870.465 km
Perigee altitude
800.342 km
Semi-major axis
7,213.541 km
Eccentricity
0.00486
Inclination
101.5732°
RAAN
329.8888°
Arg. of periapsis
143.2242°
True anomaly
8.00993°
Mean anomaly
7.9326°
Eccentric anomaly
7.97122°
Mean motion
3.54259 °/min
Orbital period
101.62 mins
BSTAR
0.0067328
Loading maneuver chart data...
Computing Atmospheric mass density...

Documentation

Showing up to 5 results
|